FW4376 Weather Reports


Display with metric or nautical units.
time (UTC)temp
F
wind
direction
speed
MPH
gust
MPH
rain 1hr
in
rain 24hr
in
rain mn
in
humidity
%
barometer
mb
20220707021513 93 99 1.0 4.0 0.00 0.00 0.00 44 1011.0
20220707020023 93 250 0.0 4.0 0.00 0.00 0.00 44 1010.9
20220707014510 94 129 0.0 3.0 0.00 0.00 0.00 43 1010.8
20220707013009 95 205 0.0 4.0 0.00 0.00 0.00 42 1010.7
20220707011507 96 177 1.0 5.0 0.00 0.00 0.00 41 1010.6
20220707010007 97 82 2.0 6.0 0.00 0.00 0.00 40 1010.7
20220707004507 97 131 2.0 5.0 0.00 0.00 0.00 39 1010.7
20220707003007 98 176 2.0 6.0 0.00 0.00 0.00 38 1010.6
20220707001506 98 211 2.0 6.0 0.00 0.00 0.00 38 1010.4
20220707000005 99 149 3.0 5.0 0.00 0.00 0.00 38 1010.3
20220706234504 99 116 1.0 6.0 0.00 0.00 0.00 38 1010.3
20220706233009 100 86 1.0 9.0 0.00 0.00 0.00 37 1010.4
20220706231503 102 193 2.0 9.0 0.00 0.00 0.00 36 1010.4
20220706230002 103 118 1.0 6.0 0.00 0.00 0.00 34 1010.6
20220706224501 103 248 3.0 8.0 0.00 0.00 0.00 34 1010.7
20220706223100 103 175 1.0 6.0 0.00 0.00 0.00 33 1010.7
20220706221602 104 227 2.0 10.0 0.00 0.00 0.00 34 1010.9
20220706220055 104 136 1.0 6.0 0.00 0.00 0.00 33 1011.0
20220706214552 104 88 2.0 8.0 0.00 0.00 0.00 32 1011.1
20220706213051 103 204 1.0 6.0 0.00 0.00 0.00 34 1011.2
20220706211548 102 225 1.0 6.0 0.00 0.00 0.00 34 1011.3
20220706210050 102 155 2.0 7.0 0.00 0.00 0.00 35 1011.5
20220706204542 102 262 3.0 9.0 0.00 0.00 0.00 36 1011.6
20220706203040 100 287 3.0 8.0 0.00 0.00 0.00 37 1011.9
20220706201540 100 284 3.0 9.0 0.00 0.00 0.00 37 1011.9
20220706200040 101 236 3.0 9.0 0.00 0.00 0.00 36 1012.2
20220706194539 101 230 3.0 9.0 0.00 0.00 0.00 36 1012.3
20220706193042 101 105 2.0 7.0 0.00 0.00 0.00 36 1012.4
20220706191535 100 151 1.0 8.0 0.00 0.00 0.00 39 1012.6
20220706190040 100 92 2.0 8.0 0.00 0.00 0.00 38 1012.8
20220706184532 99 264 2.0 9.0 0.00 0.00 0.00 39 1013.0
20220706183043 99 179 2.0 7.0 0.00 0.00 0.00 39 1013.1
20220706181528 98 100 2.0 7.0 0.00 0.00 0.00 41 1013.4
20220706180025 98 153 2.0 8.0 0.00 0.00 0.00 40 1013.5
20220706174523 97 195 2.0 8.0 0.00 0.00 0.00 41 1013.6
20220706173023 96 218 4.0 12.0 0.00 0.00 0.00 42 1013.7
20220706171522 95 147 2.0 7.0 0.00 0.00 0.00 45 1013.9
20220706170020 94 225 4.0 11.0 0.00 0.00 0.00 45 1014.0
20220706164516 94 221 3.0 8.0 0.00 0.00 0.00 46 1014.2
20220706163016 94 269 2.0 5.0 0.00 0.00 0.00 48 1014.3
20220706161514 92 239 1.0 12.0 0.00 0.00 0.00 50 1014.3
20220706160006 92 171 1.0 9.0 0.00 0.00 0.00 53 1014.4
20220706154505 91 214 2.0 10.0 0.00 0.00 0.00 54 1014.3
20220706153001 89 241 5.0 11.0 0.00 0.00 0.00 56 1014.5
20220706151559 89 251 3.0 7.0 0.00 0.00 0.00 57 1014.7
20220706150057 87 262 4.0 11.0 0.00 0.00 0.00 59 1014.7
20220706144605 87 203 3.0 11.0 0.00 0.00 0.00 61 1014.6
20220706143053 86 245 2.0 10.0 0.00 0.00 0.00 64 1014.8
20220706141552 85 255 3.0 9.0 0.00 0.00 0.00 65 1014.7
20220706140049 84 252 2.0 9.0 0.00 0.00 0.00 67 1014.7
20220706134547 83 269 3.0 12.0 0.00 0.00 0.00 68 1014.5
20220706133046 83 258 4.0 11.0 0.00 0.00 0.00 69 1014.3
20220706131544 82 266 4.0 10.0 0.00 0.00 0.00 69 1014.4
20220706130042 81 326 2.0 8.0 0.00 0.00 0.00 70 1014.2
20220706124545 80 275 1.0 8.0 0.00 0.00 0.00 72 1013.9
20220706123038 79 251 0.0 6.0 0.00 0.00 0.00 73 1013.7
20220706121538 79 262 1.0 4.0 0.00 0.00 0.00 73 1013.6
20220706120043 78 338 0.0 4.0 0.00 0.00 0.00 73 1013.4
20220706114535 78 210 1.0 4.0 0.00 0.00 0.00 72 1013.2
20220706113032 79 143 1.0 4.0 0.00 0.00 0.00 72 1013.1
20220706111531 79 221 0.0 5.0 0.00 0.00 0.00 71 1013.0
20220706110038 79 240 1.0 5.0 0.00 0.00 0.00 71 1012.9
20220706104534 80 234 0.0 4.0 0.00 0.00 0.00 71 1012.8
20220706103033 80 138 1.0 3.0 0.00 0.00 0.00 70 1012.5
20220706101528 81 51 1.0 6.0 0.00 0.00 0.00 68 1012.4
20220706100023 81 338 1.0 6.0 0.00 0.00 0.00 69 1012.5
20220706094519 81 225 1.0 7.0 0.00 0.00 0.00 70 1012.3
20220706093028 81 257 1.0 6.0 0.00 0.00 0.00 69 1012.2
20220706091516 82 48 2.0 6.0 0.00 0.00 0.00 68 1012.2
20220706090016 82 206 1.0 6.0 0.00 0.00 0.00 68 1012.1
20220706084514 82 137 2.0 9.0 0.00 0.00 0.00 68 1012.1
20220706083014 82 164 1.0 7.0 0.00 0.00 0.00 69 1012.0
20220706081513 82 252 1.0 5.0 0.00 0.00 0.00 69 1011.8
20220706080012 82 155 1.0 6.0 0.00 0.00 0.00 69 1011.9
20220706074509 82 247 1.0 5.0 0.00 0.00 0.00 68 1011.8
20220706073009 83 182 1.0 4.0 0.00 0.00 0.00 67 1011.9
20220706071512 83 131 1.0 5.0 0.00 0.00 0.00 66 1011.8
20220706070013 83 97 1.0 4.0 0.00 0.00 0.00 66 1011.9
20220706064503 83 110 1.0 5.0 0.00 0.00 0.00 65 1011.8
20220706063005 84 123 0.0 3.0 0.00 0.00 0.00 64 1011.9
20220706061502 84 108 1.0 4.0 0.00 0.00 0.00 63 1012.0
20220706060106 84 207 0.0 3.0 0.00 0.00 0.00 62 1011.9
20220706054609 85 253 0.0 4.0 0.00 0.00 0.00 61 1012.0
20220706053103 85 103 1.0 3.0 0.00 0.00 0.00 60 1012.3
20220706051554 85 164 0.0 2.0 0.00 0.00 0.00 59 1012.3
20220706050051 86 120 1.0 3.0 0.00 0.00 0.00 58 1012.1
20220706044553 86 198 0.0 5.0 0.00 0.00 0.00 58 1012.3
20220706043050 86 168 0.0 3.0 0.00 0.00 0.00 58 1012.2
20220706041549 86 159 0.0 3.0 0.00 0.00 0.00 57 1012.4
20220706040048 87 113 0.0 3.0 0.00 0.00 0.00 56 1012.4
20220706034547 87 165 0.0 2.0 0.00 0.00 0.00 55 1012.2
20220706033047 88 161 0.0 2.0 0.00 0.00 0.00 54 1012.0
20220706031546 88 148 1.0 3.0 0.00 0.00 0.00 51 1011.9
20220706030046 89 193 0.0 5.0 0.00 0.00 0.00 50 1011.6
20220706024545 90 159 0.0 4.0 0.00 0.00 0.00 49 1011.4
20220706023045 91 119 1.0 4.0 0.00 0.00 0.00 47 1011.3